TimePST,TemperatureF,Dew PointF,Humidity,Sea Level PressureIn,VisibilityMPH,Wind Direction,Wind SpeedMPH,Gust SpeedMPH,PrecipitationIn,Events,Conditions,WindDirDegrees,DateUTC
12:15 AM,44.6,41.0,87,30.15,10.0,NNE,3.5,-,N/A,,Unknown,30,2012-12-06 08:15:00
12:35 AM,44.6,41.0,87,30.15,10.0,Calm,Calm,-,N/A,,Unknown,0,2012-12-06 08:35:00
12:55 AM,44.6,41.0,87,30.14,6.0,Calm,Calm,-,N/A,,Unknown,0,2012-12-06 08:55:00
1:15 AM,44.6,41.0,87,30.14,9.0,Calm,Calm,-,N/A,,Unknown,0,2012-12-06 09:15:00
1:35 AM,44.6,41.0,87,30.14,10.0,Calm,Calm,-,N/A,,Unknown,0,2012-12-06 09:35:00
1:55 AM,44.6,41.0,87,30.14,10.0,Calm,Calm,-,N/A,,Unknown,0,2012-12-06 09:55:00
2:15 AM,44.6,42.8,93,30.14,10.0,Calm,Calm,-,N/A,,Unknown,0,2012-12-06 10:15:00
2:35 AM,44.6,41.0,87,30.15,10.0,Calm,Calm,-,N/A,,Unknown,0,2012-12-06 10:35:00
2:55 AM,44.6,41.0,87,30.15,10.0,Calm,Calm,-,N/A,,Unknown,0,2012-12-06 10:55:00
3:15 AM,44.6,41.0,87,30.15,10.0,SSW,3.5,-,N/A,,Unknown,200,2012-12-06 11:15:00
3:35 AM,42.8,41.0,93,30.14,10.0,Calm,Calm,-,N/A,,Unknown,0,2012-12-06 11:35:00
3:55 AM,44.6,41.0,87,30.14,10.0,Calm,Calm,-,N/A,,Unknown,0,2012-12-06 11:55:00
4:15 AM,44.6,41.0,87,30.13,10.0,Calm,Calm,-,N/A,,Unknown,0,2012-12-06 12:15:00
4:35 AM,42.8,39.2,87,30.13,10.0,Calm,Calm,-,N/A,,Unknown,0,2012-12-06 12:35:00
4:55 AM,42.8,39.2,87,30.14,10.0,Calm,Calm,-,N/A,,Unknown,0,2012-12-06 12:55:00
5:35 AM,42.8,41.0,93,30.14,10.0,Calm,Calm,-,N/A,,Unknown,0,2012-12-06 13:35:00
5:55 AM,41.0,39.2,93,30.14,10.0,North,3.5,-,N/A,,Unknown,10,2012-12-06 13:55:00
6:15 AM,41.0,39.2,93,30.14,10.0,Calm,Calm,-,N/A,,Unknown,0,2012-12-06 14:15:00
6:35 AM,41.0,39.2,93,30.14,10.0,Calm,Calm,-,N/A,,Unknown,0,2012-12-06 14:35:00
6:55 AM,41.0,39.2,93,30.15,10.0,Calm,Calm,-,N/A,,Unknown,0,2012-12-06 14:55:00
7:15 AM,41.0,39.2,93,30.15,10.0,Calm,Calm,-,N/A,,Unknown,0,2012-12-06 15:15:00
7:35 AM,41.0,39.2,93,30.15,10.0,Calm,Calm,-,N/A,,Unknown,0,2012-12-06 15:35:00
7:55 AM,41.0,39.2,93,30.16,10.0,Calm,Calm,-,N/A,,Unknown,0,2012-12-06 15:55:00
8:15 AM,41.0,39.2,93,30.17,10.0,SSW,3.5,-,N/A,,Unknown,210,2012-12-06 16:15:00
8:35 AM,41.0,37.4,87,30.17,10.0,SSW,4.6,-,N/A,,Unknown,210,2012-12-06 16:35:00
8:55 AM,41.0,37.4,87,30.17,10.0,Calm,Calm,-,N/A,,Unknown,0,2012-12-06 16:55:00
9:15 AM,41.0,37.4,87,30.18,10.0,Calm,Calm,-,N/A,,Unknown,0,2012-12-06 17:15:00
9:35 AM,42.8,37.4,81,30.18,10.0,SSW,4.6,-,N/A,,Unknown,210,2012-12-06 17:35:00
9:55 AM,42.8,35.6,76,30.19,10.0,WSW,4.6,-,N/A,,Unknown,240,2012-12-06 17:55:00
10:15 AM,42.8,35.6,76,30.20,10.0,SW,3.5,-,N/A,,Unknown,230,2012-12-06 18:15:00
10:35 AM,44.6,37.4,76,30.20,8.0,WSW,4.6,-,N/A,,Unknown,250,2012-12-06 18:35:00
10:55 AM,44.6,37.4,76,30.19,10.0,SSW,6.9,-,N/A,,Unknown,210,2012-12-06 18:55:00
11:15 AM,44.6,37.4,76,30.19,10.0,SSW,5.8,-,N/A,,Unknown,200,2012-12-06 19:15:00
11:35 AM,44.6,35.6,71,30.18,10.0,SSW,4.6,-,N/A,,Unknown,200,2012-12-06 19:35:00
11:55 AM,44.6,37.4,76,30.17,10.0,SSW,5.8,-,N/A,,Unknown,210,2012-12-06 19:55:00
12:15 PM,44.6,35.6,71,30.17,10.0,Calm,Calm,-,N/A,,Unknown,0,2012-12-06 20:15:00
12:35 PM,44.6,37.4,76,30.16,10.0,SSE,3.5,-,N/A,,Unknown,160,2012-12-06 20:35:00
12:55 PM,44.6,37.4,76,30.16,10.0,Calm,Calm,-,N/A,,Unknown,0,2012-12-06 20:55:00
1:15 PM,46.4,37.4,71,30.15,10.0,SSW,3.5,-,N/A,,Unknown,200,2012-12-06 21:15:00
1:35 PM,46.4,37.4,71,30.15,10.0,SSW,5.8,-,N/A,,Unknown,210,2012-12-06 21:35:00
1:55 PM,46.4,37.4,71,30.14,10.0,SE,5.8,-,N/A,,Unknown,140,2012-12-06 21:55:00
2:15 PM,46.4,37.4,71,30.14,10.0,SSW,6.9,-,N/A,,Unknown,200,2012-12-06 22:15:00
2:35 PM,46.4,37.4,71,30.14,10.0,SW,5.8,-,N/A,,Unknown,230,2012-12-06 22:35:00
2:55 PM,46.4,37.4,71,30.14,10.0,SW,5.8,-,N/A,,Unknown,220,2012-12-06 22:55:00
3:15 PM,46.4,37.4,71,30.15,10.0,SW,4.6,-,N/A,,Unknown,220,2012-12-06 23:15:00
3:35 PM,46.4,37.4,71,30.15,10.0,SW,6.9,-,N/A,,Unknown,230,2012-12-06 23:35:00
3:55 PM,44.6,37.4,76,30.15,10.0,Calm,Calm,-,N/A,,Unknown,0,2012-12-06 23:55:00
4:15 PM,44.6,39.2,81,30.15,10.0,Calm,Calm,-,N/A,,Unknown,0,2012-12-07 00:15:00
4:35 PM,42.8,37.4,81,30.16,10.0,SSE,3.5,-,N/A,,Unknown,160,2012-12-07 00:35:00
4:55 PM,41.0,37.4,87,30.16,10.0,Calm,Calm,-,N/A,,Unknown,0,2012-12-07 00:55:00
5:15 PM,39.2,37.4,93,30.16,10.0,Calm,Calm,-,N/A,,Unknown,0,2012-12-07 01:15:00
5:35 PM,39.2,37.4,93,30.17,10.0,Calm,Calm,-,N/A,,Unknown,0,2012-12-07 01:35:00
5:55 PM,37.4,35.6,93,30.18,10.0,Calm,Calm,-,N/A,,Unknown,0,2012-12-07 01:55:00
6:15 PM,37.4,35.6,93,30.18,10.0,Calm,Calm,-,N/A,,Unknown,0,2012-12-07 02:15:00
6:35 PM,35.6,35.6,100,30.19,10.0,North,3.5,-,N/A,,Unknown,10,2012-12-07 02:35:00
7:15 PM,35.6,33.8,93,30.19,10.0,Calm,Calm,-,N/A,,Unknown,0,2012-12-07 03:15:00
7:35 PM,35.6,33.8,93,30.20,8.0,Calm,Calm,-,N/A,,Unknown,0,2012-12-07 03:35:00
7:55 PM,35.6,33.8,93,30.20,10.0,Calm,Calm,-,N/A,,Unknown,0,2012-12-07 03:55:00
8:15 PM,35.6,33.8,93,30.21,8.0,Calm,Calm,-,N/A,,Unknown,0,2012-12-07 04:15:00
8:35 PM,35.6,33.8,93,30.21,8.0,Calm,Calm,-,N/A,,Unknown,0,2012-12-07 04:35:00
8:55 PM,35.6,33.8,93,30.21,6.0,Calm,Calm,-,N/A,,Unknown,0,2012-12-07 04:55:00
9:15 PM,33.8,32.0,93,30.22,2.5,Calm,Calm,-,N/A,,Unknown,0,2012-12-07 05:15:00
9:35 PM,33.8,32.0,93,30.22,3.0,Calm,Calm,-,N/A,,Unknown,0,2012-12-07 05:35:00
9:55 PM,32.0,32.0,100,30.22,5.0,Calm,Calm,-,N/A,,Unknown,0,2012-12-07 05:55:00
10:15 PM,33.8,32.0,93,30.23,7.0,Calm,Calm,-,N/A,,Unknown,0,2012-12-07 06:15:00
10:35 PM,33.8,32.0,93,30.23,1.0,Calm,Calm,-,N/A,,Unknown,0,2012-12-07 06:35:00
10:55 PM,35.6,32.0,87,30.23,0.5,Calm,Calm,-,N/A,,Unknown,0,2012-12-07 06:55:00
11:15 PM,35.6,33.8,93,30.22,1.0,Calm,Calm,-,N/A,,Unknown,0,2012-12-07 07:15:00
11:35 PM,35.6,33.8,93,30.23,1.2,Calm,Calm,-,N/A,,Unknown,0,2012-12-07 07:35:00
11:55 PM,35.6,35.6,100,30.23,4.0,Calm,Calm,-,N/A,,Unknown,0,2012-12-07 07:55:00